QPF
0.00 0.00 0.00 0.00 0.00 0.00 0.00 0.00 0.00 0.00 0.00 0.00 0.00 0.00 0.00 0.00 0.00 0.01 0.01 0.01 0.01 0.02 0.04 0.02 0.01 0.01 0.01 0.03 0.04 0.03 0.03 0.04 0.04 0.05 0.04 0.03 0.03 0.03 0.02 0.03 0.03 0.03 0.03 0.04
0.00 0.00 0.00 0.00 0.00 0.00 0.00 0.00 0.00 0.00 0.00 0.00 0.00 0.00 0.00 0.00 0.00 0.01 0.01 0.01 0.02 0.02 0.05 0.02 0.01 0.01 0.04 0.06 0.04 0.03 0.02 0.04 0.04 0.04 0.03 0.03 0.03 0.02 0.03 0.04 0.04 0.04 0.04 0.03
0.00 0.00 0.00 0.00 0.00 0.00 0.00 0.00 0.00 0.00 0.00 0.00 0.00 0.00 0.00 0.00 0.00 0.00 0.01 0.01 0.02 0.02 0.03 0.02 0.01 0.01 0.02 0.07 0.05 0.03 0.03 0.03 0.03 0.04 0.04 0.03 0.02 0.01 0.02 0.03 0.03 0.03 0.03 0.03
0.00 0.00 0.00 0.00 0.00 0.00 0.00 0.00 0.00 0.00 0.00 0.00 0.00 0.00 0.00 0.00 0.00 0.00 0.01 0.01 0.01 0.02 0.02 0.02 0.03 0.01 0.01 0.03 0.04 0.03 0.05 0.04 0.03 0.03 0.03 0.03 0.01 0.01 0.01 0.01 0.01 0.01 0.01 0.02
0.00 0.00 0.00 0.00 0.00 0.00 0.00 0.00 0.00 0.00 0.00 0.00 0.00 0.01 0.00 0.00 0.00 0.00 0.01 0.01 0.01 0.01 0.02 0.03 0.03 0.01 0.01 0.02 0.03 0.03 0.04 0.05 0.03 0.02 0.02 0.02 0.02 0.01 0.00 0.00 0.01 0.01 0.01 0.01
0.00 0.00 0.00 0.00 0.00 0.00 0.00 0.00 0.00 0.00 0.00 0.00 0.00 0.00 0.00 0.00 0.00 0.01 0.01 0.01 0.01 0.00 0.01 0.05 0.04 0.02 0.01 0.01 0.01 0.02 0.02 0.02 0.02 0.02 0.02 0.02 0.02 0.01 0.01 0.01 0.01 0.01 0.01 0.01
0.00 0.00 0.00 0.00 0.00 0.00 0.00 0.01 0.01 0.00 0.00 0.00 0.00 0.00 0.00 0.00 0.00 0.00 0.01 0.01 0.01 0.01 0.01 0.02 0.02 0.01 0.01 0.01 0.01 0.01 0.01 0.01 0.01 0.02 0.02 0.03 0.03 0.02 0.01 0.02 0.03 0.03 0.04 0.03
0.00 0.00 0.00 0.00 0.00 0.00 0.00 0.01 0.01 0.00 0.00 0.00 0.00 0.00 0.00 0.00 0.00 0.00 0.00 0.00 0.01 0.01 0.01 0.01 0.01 0.01 0.00 0.00 0.01 0.01 0.01 0.01 0.01 0.02 0.03 0.03 0.03 0.03 0.04 0.05 0.07 0.07 0.07 0.05
0.00 0.00 0.00 0.00 0.00 0.00 0.01 0.01 0.01 0.01 0.00 0.00 0.00 0.00 0.00 0.00 0.00 0.00 0.00 0.00 0.01 0.01 0.01 0.01 0.01 0.01 0.01 0.01 0.01 0.01 0.01 0.01 0.01 0.02 0.03 0.04 0.04 0.04 0.05 0.07 0.09 0.10 0.07 0.05
0.01 0.00 0.00 0.00 0.00 0.00 0.00 0.01 0.01 0.01 0.01 0.00 0.00 0.00 0.00 0.00 0.00 0.00 0.00 0.00 0.01 0.01 0.01 0.01 0.01 0.01 0.01 0.01 0.02 0.02 0.03 0.04 0.04 0.04 0.04 0.04 0.04 0.04 0.05 0.05 0.05 0.06 0.06 0.06
0.01 0.01 0.01 0.01 0.00 0.00 0.01 0.00 0.01 0.01 0.02 0.01 0.00 0.00 0.00 0.00 0.00 0.00 0.00 0.00 0.01 0.01 0.01 0.02 0.02 0.02 0.02 0.03 0.04 0.04 0.04 0.04 0.05 0.05 0.05 0.04 0.04 0.04 0.05 0.04 0.05 0.06 0.06 0.07
0.01 0.01 0.01 0.01 0.00 0.00 0.00 0.00 0.01 0.01 0.01 0.01 0.00 0.00 0.00 0.00 0.00 0.00 0.00 0.00 0.01 0.01 0.02 0.03 0.02 0.02 0.03 0.03 0.04 0.04 0.03 0.04 0.05 0.05 0.06 0.06 0.05 0.04 0.04 0.04 0.05 0.06 0.07 0.08
0.01 0.01 0.01 0.00 0.00 0.00 0.00 0.01 0.01 0.01 0.01 0.01 0.00 0.00 0.00 0.00 0.00 0.00 0.00 0.01 0.01 0.01 0.02 0.03 0.03 0.03 0.03 0.02 0.03 0.03 0.03 0.03 0.03 0.04 0.05 0.06 0.05 0.04 0.04 0.04 0.05 0.05 0.05 0.05
0.01 0.01 0.00 0.00 0.00 0.00 0.00 0.00 0.01 0.01 0.01 0.01 0.00 0.00 0.00 0.00 0.00 0.01 0.01 0.01 0.01 0.02 0.03 0.03 0.03 0.03 0.03 0.02 0.02 0.03 0.02 0.02 0.03 0.03 0.04 0.05 0.05 0.05 0.04 0.04 0.04 0.04 0.04 0.05
0.01 0.01 0.01 0.01 0.01 0.01 0.01 0.01 0.01 0.01 0.01 0.01 0.01 0.00 0.00 0.01 0.01 0.02 0.02 0.02 0.02 0.03 0.03 0.03 0.03 0.04 0.04 0.03 0.03 0.03 0.02 0.02 0.02 0.02 0.03 0.04 0.04 0.04 0.03 0.03 0.03 0.03 0.04 0.04
0.00 0.01 0.01 0.00 0.00 0.01 0.01 0.01 0.01 0.01 0.01 0.01 0.01 0.01 0.01 0.02 0.02 0.02 0.01 0.01 0.02 0.02 0.02 0.02 0.02 0.03 0.04 0.04 0.03 0.02 0.02 0.01 0.02 0.02 0.02 0.04 0.05 0.04 0.03 0.03 0.03 0.03 0.03 0.03
0.01 0.01 0.01 0.01 0.01 0.01 0.01 0.01 0.01 0.01 0.01 0.02 0.02 0.01 0.01 0.02 0.01 0.01 0.01 0.01 0.01 0.01 0.01 0.01 0.01 0.02 0.02 0.01 0.01 0.02 0.02 0.01 0.02 0.02 0.03 0.04 0.05 0.04 0.04 0.04 0.03 0.03 0.03 0.03
0.01 0.01 0.01 0.01 0.01 0.02 0.02 0.01 0.02 0.01 0.01 0.01 0.01 0.01 0.01 0.01 0.01 0.01 0.01 0.01 0.01 0.01 0.01 0.01 0.02 0.02 0.02 0.01 0.02 0.03 0.04 0.02 0.02 0.03 0.04 0.06 0.06 0.04 0.03 0.03 0.03 0.03 0.03 0.03
0.01 0.02 0.02 0.02 0.01 0.01 0.01 0.02 0.01 0.01 0.01 0.01 0.00 0.00 0.00 0.01 0.01 0.01 0.01 0.01 0.01 0.01 0.01 0.01 0.02 0.02 0.02 0.02 0.03 0.03 0.04 0.04 0.04 0.04 0.06 0.07 0.06 0.04 0.03 0.03 0.03 0.03 0.04 0.03
0.02 0.02 0.03 0.03 0.02 0.01 0.01 0.01 0.01 0.01 0.02 0.01 0.01 0.01 0.01 0.01 0.02 0.02 0.02 0.02 0.02 0.02 0.02 0.02 0.02 0.02 0.02 0.03 0.03 0.04 0.04 0.05 0.05 0.05 0.07 0.07 0.05 0.03 0.03 0.03 0.03 0.03 0.04 0.03
0.01 0.02 0.03 0.03 0.03 0.02 0.01 0.01 0.01 0.02 0.02 0.02 0.01 0.01 0.02 0.02 0.02 0.01 0.01 0.01 0.01 0.01 0.01 0.01 0.02 0.03 0.03 0.04 0.05 0.06 0.05 0.05 0.05 0.05 0.06 0.05 0.03 0.03 0.02 0.02 0.03 0.03 0.04 0.03
0.02 0.02 0.02 0.03 0.02 0.02 0.01 0.02 0.03 0.02 0.01 0.02 0.01 0.01 0.02 0.02 0.02 0.01 0.01 0.01 0.01 0.01 0.01 0.01 0.02 0.05 0.06 0.05 0.05 0.06 0.06 0.06 0.06 0.05 0.05 0.03 0.02 0.02 0.02 0.02 0.02 0.02 0.03 0.02
0.03 0.03 0.03 0.02 0.02 0.02 0.02 0.03 0.04 0.03 0.03 0.02 0.01 0.01 0.01 0.01 0.02 0.01 0.01 0.01 0.01 0.01 0.01 0.01 0.02 0.05 0.05 0.04 0.03 0.03 0.04 0.05 0.06 0.05 0.03 0.02 0.02 0.01 0.02 0.02 0.02 0.02 0.02 0.01
0.03 0.02 0.03 0.03 0.03 0.03 0.03 0.03 0.04 0.03 0.03 0.02 0.02 0.01 0.01 0.00 0.00 0.01 0.01 0.01 0.01 0.01 0.01 0.01 0.02 0.04 0.05 0.03 0.02 0.02 0.02 0.03 0.04 0.04 0.02 0.02 0.01 0.01 0.01 0.02 0.02 0.02 0.02 0.01
0.04 0.04 0.05 0.05 0.05 0.04 0.02 0.02 0.03 0.05 0.06 0.05 0.03 0.02 0.01 0.01 0.01 0.01 0.01 0.02 0.02 0.02 0.01 0.02 0.03 0.04 0.04 0.02 0.01 0.01 0.01 0.02 0.02 0.02 0.02 0.01 0.01 0.01 0.01 0.02 0.02 0.02 0.01 0.02
0.06 0.07 0.08 0.08 0.07 0.05 0.03 0.02 0.02 0.04 0.10 0.07 0.04 0.03 0.02 0.01 0.01 0.01 0.01 0.02 0.03 0.04 0.04 0.04 0.04 0.04 0.03 0.02 0.02 0.02 0.02 0.02 0.02 0.02 0.02 0.01 0.01 0.01 0.01 0.01 0.02 0.02 0.02 0.02
MSLP
1013.07 1013.58 1014.02 1014.37 1014.63 1014.81 1014.92 1014.94 1014.87 1014.69 1014.38 1013.94 1013.38 1012.72 1012.03 1011.37 1010.79 1010.37 1010.12 1010.06 1010.18 1010.43 1010.76 1011.13 1011.49 1011.82 1012.13 1012.42 1012.72 1013.05 1013.43 1013.86 1014.34 1014.83 1015.30 1015.73 1016.09 1016.37 1016.57 1016.72 1016.83 1016.95 1017.09 1017.28
1013.36 1013.65 1013.87 1014.05 1014.21 1014.38 1014.56 1014.73 1014.85 1014.87 1014.72 1014.39 1013.86 1013.16 1012.36 1011.53 1010.77 1010.17 1009.79 1009.65 1009.73 1010.00 1010.39 1010.84 1011.29 1011.71 1012.07 1012.40 1012.71 1013.05 1013.44 1013.88 1014.37 1014.89 1015.39 1015.84 1016.21 1016.48 1016.65 1016.75 1016.80 1016.85 1016.93 1017.06
1013.55 1013.61 1013.62 1013.63 1013.71 1013.89 1014.16 1014.49 1014.80 1015.01 1015.02 1014.79 1014.27 1013.51 1012.57 1011.56 1010.61 1009.83 1009.30 1009.07 1009.12 1009.42 1009.88 1010.43 1010.98 1011.49 1011.92 1012.30 1012.65 1013.00 1013.39 1013.84 1014.35 1014.89 1015.42 1015.90 1016.29 1016.56 1016.73 1016.80 1016.81 1016.81 1016.84 1016.92
1013.58 1013.44 1013.27 1013.16 1013.19 1013.40 1013.78 1014.27 1014.78 1015.16 1015.31 1015.14 1014.62 1013.77 1012.68 1011.48 1010.32 1009.35 1008.68 1008.35 1008.38 1008.70 1009.25 1009.89 1010.56 1011.17 1011.69 1012.12 1012.50 1012.88 1013.28 1013.73 1014.25 1014.81 1015.37 1015.88 1016.30 1016.60 1016.78 1016.85 1016.85 1016.83 1016.81 1016.84
1013.41 1013.10 1012.81 1012.63 1012.66 1012.94 1013.45 1014.11 1014.78 1015.32 1015.57 1015.44 1014.88 1013.93 1012.68 1011.29 1009.94 1008.80 1007.98 1007.58 1007.58 1007.93 1008.55 1009.30 1010.07 1010.78 1011.39 1011.89 1012.31 1012.70 1013.11 1013.57 1014.10 1014.67 1015.25 1015.79 1016.25 1016.59 1016.80 1016.89 1016.90 1016.87 1016.83 1016.83
1012.97 1012.57 1012.22 1012.04 1012.12 1012.50 1013.15 1013.96 1014.78 1015.44 1015.76 1015.64 1015.03 1013.98 1012.58 1011.02 1009.50 1008.21 1007.29 1006.81 1006.80 1007.18 1007.86 1008.71 1009.58 1010.40 1011.09 1011.65 1012.11 1012.52 1012.94 1013.40 1013.92 1014.50 1015.09 1015.66 1016.15 1016.53 1016.78 1016.90 1016.93 1016.91 1016.86 1016.83
1012.23 1011.80 1011.46 1011.34 1011.52 1012.02 1012.81 1013.76 1014.70 1015.43 1015.79 1015.67 1015.01 1013.87 1012.36 1010.68 1009.04 1007.65 1006.65 1006.14 1006.12 1006.54 1007.28 1008.20 1009.16 1010.06 1010.82 1011.44 1011.94 1012.37 1012.79 1013.25 1013.76 1014.34 1014.94 1015.52 1016.04 1016.45 1016.73 1016.88 1016.93 1016.92 1016.87 1016.83
1011.21 1010.81 1010.54 1010.52 1010.82 1011.45 1012.36 1013.41 1014.42 1015.20 1015.58 1015.44 1014.74 1013.55 1011.99 1010.25 1008.57 1007.14 1006.13 1005.62 1005.62 1006.07 1006.85 1007.83 1008.85 1009.81 1010.63 1011.29 1011.83 1012.27 1012.70 1013.15 1013.65 1014.22 1014.81 1015.40 1015.92 1016.35 1016.65 1016.82 1016.89 1016.88 1016.83 1016.78
1009.95 1009.62 1009.46 1009.56 1009.99 1010.74 1011.73 1012.85 1013.89 1014.67 1015.04 1014.88 1014.18 1012.99 1011.44 1009.74 1008.09 1006.71 1005.75 1005.28 1005.32 1005.80 1006.62 1007.63 1008.68 1009.67 1010.52 1011.21 1011.77 1012.23 1012.66 1013.11 1013.61 1014.16 1014.73 1015.30 1015.82 1016.24 1016.53 1016.71 1016.78 1016.77 1016.71 1016.65
1008.54 1008.31 1008.27 1008.50 1009.04 1009.87 1010.91 1012.02 1013.04 1013.79 1014.13 1013.97 1013.29 1012.17 1010.72 1009.13 1007.62 1006.37 1005.52 1005.13 1005.23 1005.75 1006.58 1007.59 1008.64 1009.62 1010.48 1011.19 1011.76 1012.24 1012.68 1013.13 1013.61 1014.14 1014.70 1015.24 1015.72 1016.12 1016.39 1016.55 1016.60 1016.58 1016.51 1016.44
1007.10 1006.99 1007.07 1007.41 1008.03 1008.88 1009.90 1010.96 1011.90 1012.58 1012.88 1012.72 1012.11 1011.10 1009.83 1008.45 1007.15 1006.10 1005.41 1005.15 1005.33 1005.87 1006.69 1007.67 1008.69 1009.64 1010.48 1011.18 1011.76 1012.25 1012.70 1013.16 1013.64 1014.16 1014.68 1015.18 1015.62 1015.97 1016.21 1016.34 1016.36 1016.31 1016.23 1016.14
1005.73 1005.74 1005.95 1006.37 1007.01 1007.84 1008.78 1009.73 1010.54 1011.12 1011.35 1011.21 1010.69 1009.85 1008.80 1007.69 1006.66 1005.86 1005.39 1005.28 1005.53 1006.10 1006.90 1007.83 1008.78 1009.68 1010.48 1011.16 1011.74 1012.25 1012.72 1013.19 1013.67 1014.17 1014.66 1015.12 1015.51 1015.81 1016.00 1016.08 1016.07 1015.99 1015.88 1015.77
1004.54 1004.67 1004.97 1005.44 1006.07 1006.82 1007.63 1008.41 1009.06 1009.50 1009.67 1009.53 1009.11 1008.46 1007.67 1006.86 1006.15 1005.63 1005.38 1005.43 1005.77 1006.36 1007.13 1007.99 1008.87 1009.70 1010.45 1011.11 1011.69 1012.21 1012.70 1013.18 1013.67 1014.16 1014.62 1015.03 1015.37 1015.61 1015.75 1015.78 1015.73 1015.63 1015.49 1015.36
1003.58 1003.81 1004.18 1004.67 1005.25 1005.89 1006.53 1007.11 1007.56 1007.85 1007.93 1007.80 1007.48 1007.02 1006.49 1005.98 1005.58 1005.34 1005.31 1005.52 1005.95 1006.56 1007.29 1008.09 1008.89 1009.66 1010.37 1011.01 1011.59 1012.13 1012.65 1013.15 1013.64 1014.11 1014.54 1014.92 1015.20 1015.39 1015.47 1015.46 1015.37 1015.24 1015.08 1014.93
1002.86 1003.17 1003.58 1004.06 1004.56 1005.05 1005.50 1005.87 1006.12 1006.24 1006.23 1006.09 1005.86 1005.58 1005.29 1005.06 1004.93 1004.95 1005.14 1005.49 1005.99 1006.62 1007.33 1008.07 1008.82 1009.54 1010.22 1010.86 1011.46 1012.03 1012.57 1013.09 1013.59 1014.04 1014.44 1014.77 1015.00 1015.13 1015.17 1015.12 1015.00 1014.85 1014.67 1014.51
1002.36 1002.72 1003.14 1003.57 1003.97 1004.31 1004.57 1004.72 1004.78 1004.74 1004.64 1004.49 1004.32 1004.18 1004.09 1004.09 1004.21 1004.44 1004.80 1005.28 1005.85 1006.50 1007.19 1007.91 1008.62 1009.32 1010.00 1010.66 1011.29 1011.89 1012.47 1013.01 1013.51 1013.95 1014.31 1014.58 1014.76 1014.85 1014.84 1014.76 1014.62 1014.45 1014.26 1014.08
1002.02 1002.40 1002.80 1003.16 1003.45 1003.63 1003.70 1003.67 1003.55 1003.37 1003.18 1003.01 1002.89 1002.86 1002.93 1003.11 1003.41 1003.81 1004.31 1004.88 1005.52 1006.19 1006.89 1007.60 1008.32 1009.03 1009.73 1010.43 1011.10 1011.76 1012.37 1012.92 1013.41 1013.83 1014.14 1014.37 1014.49 1014.53 1014.48 1014.37 1014.22 1014.05 1013.85 1013.66
1001.82 1002.16 1002.49 1002.75 1002.92 1002.95 1002.87 1002.68 1002.42 1002.14 1001.89 1001.70 1001.62 1001.66 1001.84 1002.15 1002.57 1003.09 1003.69 1004.34 1005.02 1005.73 1006.45 1007.19 1007.93 1008.68 1009.44 1010.19 1010.92 1011.61 1012.25 1012.82 1013.30 1013.68 1013.95 1014.11 1014.19 1014.17 1014.09 1013.97 1013.81 1013.63 1013.44 1013.24
1001.69 1001.94 1002.16 1002.31 1002.34 1002.25 1002.04 1001.73 1001.38 1001.04 1000.75 1000.57 1000.52 1000.63 1000.88 1001.28 1001.79 1002.38 1003.04 1003.74 1004.47 1005.21 1005.97 1006.74 1007.53 1008.34 1009.15 1009.96 1010.75 1011.48 1012.14 1012.71 1013.16 1013.49 1013.71 1013.82 1013.84 1013.78 1013.67 1013.53 1013.37 1013.19 1013.01 1012.81
1001.63 1001.73 1001.80 1001.81 1001.71 1001.51 1001.20 1000.83 1000.43 1000.07 999.80 999.64 999.64 999.80 1000.12 1000.57 1001.14 1001.79 1002.49 1003.22 1003.97 1004.75 1005.54 1006.36 1007.20 1008.07 1008.94 1009.79 1010.62 1011.37 1012.03 1012.58 1013.00 1013.28 1013.44 1013.49 1013.45 1013.36 1013.22 1013.07 1012.91 1012.74 1012.57 1012.38
1001.61 1001.52 1001.42 1001.27 1001.05 1000.75 1000.39 999.99 999.60 999.27 999.04 998.95 999.01 999.24 999.61 1000.12 1000.73 1001.41 1002.14 1002.90 1003.68 1004.48 1005.31 1006.16 1007.04 1007.94 1008.84 1009.73 1010.56 1011.31 1011.95 1012.45 1012.81 1013.04 1013.14 1013.13 1013.05 1012.92 1012.76 1012.60 1012.44 1012.28 1012.12 1011.95
1001.62 1001.33 1001.05 1000.75 1000.41 1000.04 999.64 999.25 998.91 998.65 998.51 998.51 998.66 998.97 999.42 999.98 1000.64 1001.35 1002.10 1002.88 1003.68 1004.51 1005.35 1006.22 1007.12 1008.03 1008.93 1009.80 1010.60 1011.31 1011.89 1012.34 1012.64 1012.80 1012.83 1012.77 1012.65 1012.48 1012.31 1012.15 1011.99 1011.85 1011.70 1011.54
1001.67 1001.18 1000.72 1000.28 999.84 999.42 999.03 998.68 998.42 998.26 998.23 998.35 998.61 999.02 999.55 1000.18 1000.89 1001.64 1002.43 1003.23 1004.05 1004.88 1005.73 1006.60 1007.48 1008.36 1009.22 1010.03 1010.77 1011.40 1011.91 1012.27 1012.49 1012.57 1012.55 1012.44 1012.28 1012.09 1011.91 1011.74 1011.59 1011.45 1011.31 1011.17
1001.72 1001.07 1000.46 999.91 999.41 998.97 998.60 998.32 998.16 998.12 998.22 998.46 998.85 999.36 999.98 1000.69 1001.46 1002.27 1003.09 1003.93 1004.77 1005.60 1006.45 1007.29 1008.12 1008.94 1009.72 1010.44 1011.07 1011.60 1011.99 1012.25 1012.39 1012.40 1012.32 1012.17 1011.98 1011.78 1011.59 1011.41 1011.26 1011.13 1010.99 1010.85
1001.74 1000.97 1000.28 999.67 999.14 998.72 998.40 998.21 998.14 998.23 998.46 998.83 999.33 999.95 1000.67 1001.47 1002.30 1003.17 1004.04 1004.91 1005.76 1006.60 1007.42 1008.22 1008.99 1009.71 1010.38 1010.98 1011.49 1011.88 1012.16 1012.31 1012.35 1012.29 1012.16 1011.98 1011.77 1011.56 1011.37 1011.19 1011.04 1010.89 1010.75 1010.60
1001.69 1000.88 1000.17 999.55 999.05 998.68 998.43 998.33 998.38 998.58 998.93 999.41 1000.02 1000.73 1001.53 1002.40 1003.31 1004.23 1005.15 1006.05 1006.92 1007.76 1008.55 1009.29 1009.98 1010.60 1011.15 1011.61 1011.97 1012.23 1012.38 1012.43 1012.38 1012.27 1012.09 1011.89 1011.67 1011.46 1011.26 1011.08 1010.92 1010.76 1010.61 1010.44
Thickness
5751 5738 5732 5737 5741 5742 5740 5736 5733 5747 5761 5754 5750 5752 5762 5770 5768 5767 5767 5767 5767 5768 5771 5770 5768 5766 5762 5759 5755 5753 5749 5746 5741 5736 5731 5728 5725 5724 5722 5721 5719 5718 5716 5714
5734 5731 5746 5749 5745 5740 5736 5730 5732 5744 5757 5752 5745 5748 5759 5765 5765 5768 5767 5766 5766 5764 5764 5764 5763 5761 5759 5756 5753 5750 5747 5744 5740 5737 5733 5729 5725 5722 5720 5718 5716 5715 5713 5711
5729 5741 5752 5746 5740 5735 5733 5729 5733 5735 5744 5746 5740 5737 5750 5761 5765 5766 5766 5766 5765 5764 5762 5761 5760 5759 5757 5753 5751 5749 5745 5742 5739 5735 5730 5725 5720 5718 5715 5714 5713 5712 5710 5708
5729 5742 5745 5740 5738 5736 5727 5744 5741 5737 5725 5718 5729 5710 5738 5749 5753 5759 5762 5762 5763 5764 5762 5760 5758 5756 5755 5753 5750 5747 5744 5740 5737 5732 5727 5722 5717 5714 5714 5712 5710 5708 5707 5705
5728 5740 5738 5735 5742 5742 5738 5748 5741 5734 5721 5712 5718 5708 5724 5741 5743 5753 5758 5761 5762 5762 5760 5758 5757 5756 5754 5751 5748 5744 5740 5737 5734 5730 5726 5720 5717 5714 5711 5709 5706 5705 5703 5702
5734 5745 5745 5746 5752 5751 5747 5739 5729 5716 5706 5698 5713 5704 5713 5731 5743 5751 5758 5759 5759 5759 5758 5756 5755 5752 5750 5748 5744 5741 5737 5734 5731 5727 5723 5719 5714 5711 5707 5705 5703 5701 5699 5697
5722 5735 5746 5751 5742 5744 5736 5714 5693 5690 5683 5693 5715 5708 5716 5744 5751 5754 5755 5756 5757 5756 5754 5751 5749 5747 5745 5743 5740 5737 5733 5729 5727 5723 5719 5716 5712 5709 5705 5703 5701 5698 5695 5693
5703 5710 5737 5745 5740 5731 5727 5716 5690 5680 5679 5691 5707 5706 5728 5749 5753 5755 5755 5753 5752 5750 5750 5748 5747 5744 5742 5739 5736 5733 5729 5726 5723 5720 5717 5714 5710 5707 5704 5701 5698 5695 5693 5691
5701 5708 5738 5745 5747 5739 5721 5712 5714 5693 5689 5684 5694 5711 5731 5747 5748 5748 5748 5747 5745 5744 5745 5743 5742 5740 5737 5734 5731 5728 5725 5722 5720 5717 5714 5711 5707 5704 5700 5698 5695 5693 5691 5689
5713 5705 5725 5737 5740 5736 5731 5717 5698 5687 5676 5674 5690 5702 5712 5732 5737 5741 5741 5739 5739 5740 5739 5738 5737 5735 5733 5731 5727 5723 5720 5717 5715 5712 5709 5708 5704 5700 5697 5693 5691 5689 5687 5685
5713 5700 5709 5719 5720 5718 5717 5710 5698 5685 5682 5674 5673 5696 5732 5733 5736 5735 5737 5737 5736 5735 5734 5732 5731 5730 5727 5724 5720 5717 5714 5711 5709 5708 5706 5703 5700 5697 5693 5689 5687 5684 5682 5680
5707 5694 5688 5705 5724 5729 5722 5714 5699 5686 5681 5677 5674 5695 5736 5735 5735 5733 5733 5734 5733 5731 5729 5728 5726 5723 5720 5716 5713 5710 5708 5706 5705 5703 5701 5699 5695 5692 5688 5684 5682 5679 5677 5674
5703 5688 5678 5686 5700 5713 5712 5711 5704 5693 5680 5671 5672 5696 5730 5730 5729 5728 5726 5726 5726 5723 5721 5720 5718 5716 5713 5710 5707 5704 5703 5702 5700 5698 5695 5692 5690 5686 5683 5679 5677 5674 5671 5669
5707 5686 5681 5679 5687 5698 5700 5704 5700 5690 5675 5673 5683 5700 5715 5719 5720 5721 5721 5720 5717 5715 5714 5712 5710 5708 5707 5705 5702 5699 5697 5696 5694 5692 5689 5686 5684 5681 5677 5674 5671 5669 5667 5664
5699 5683 5687 5693 5701 5702 5701 5701 5699 5693 5689 5684 5693 5698 5708 5711 5714 5715 5714 5713 5711 5708 5706 5704 5703 5701 5700 5698 5696 5693 5691 5690 5688 5686 5683 5682 5679 5675 5671 5668 5666 5664 5661 5659
5686 5681 5683 5686 5696 5697 5694 5696 5697 5696 5694 5692 5693 5696 5707 5709 5709 5708 5707 5707 5705 5702 5700 5698 5697 5695 5693 5692 5691 5689 5686 5685 5683 5681 5678 5676 5672 5669 5666 5664 5662 5659 5656 5653
5673 5672 5669 5668 5683 5685 5676 5687 5690 5690 5692 5689 5686 5694 5701 5700 5701 5701 5701 5700 5699 5697 5695 5692 5690 5689 5688 5687 5686 5684 5682 5680 5677 5674 5673 5670 5667 5664 5662 5660 5657 5654 5651 5648
5667 5663 5657 5658 5667 5659 5676 5692 5692 5687 5687 5688 5689 5692 5694 5695 5696 5697 5696 5693 5692 5691 5689 5686 5684 5682 5681 5681 5680 5679 5677 5673 5671 5668 5666 5665 5662 5659 5657 5655 5653 5650 5647 5644
5669 5662 5651 5647 5650 5659 5675 5683 5682 5678 5679 5683 5683 5685 5686 5688 5689 5689 5691 5689 5687 5685 5683 5681 5680 5678 5676 5675 5674 5672 5669 5667 5664 5663 5661 5659 5657 5655 5653 5650 5648 5645 5642 5639
5661 5659 5650 5644 5645 5646 5664 5680 5684 5678 5668 5677 5677 5676 5677 5678 5672 5677 5683 5682 5680 5679 5677 5675 5673 5671 5668 5667 5666 5664 5662 5659 5658 5657 5656 5654 5652 5650 5648 5645 5643 5640 5637 5634
5645 5644 5641 5638 5638 5647 5663 5672 5675 5658 5660 5671 5671 5669 5668 5666 5669 5673 5674 5673 5673 5671 5670 5668 5666 5664 5662 5660 5659 5656 5654 5653 5653 5652 5651 5648 5647 5644 5642 5640 5637 5634 5631 5627
5634 5632 5632 5631 5631 5639 5659 5661 5656 5656 5663 5665 5664 5663 5662 5662 5665 5664 5665 5664 5664 5663 5662 5661 5658 5656 5655 5654 5651 5648 5646 5647 5646 5645 5643 5642 5640 5638 5637 5633 5631 5628 5624 5621
5628 5630 5629 5630 5633 5644 5649 5650 5654 5656 5655 5657 5657 5657 5656 5655 5655 5655 5655 5655 5655 5655 5655 5653 5651 5649 5648 5647 5644 5641 5640 5640 5638 5637 5635 5634 5633 5631 5630 5627 5624 5621 5617 5614
5623 5627 5624 5625 5632 5638 5642 5645 5647 5649 5649 5651 5650 5650 5649 5648 5647 5647 5646 5646 5647 5647 5646 5646 5644 5642 5640 5639 5637 5634 5633 5632 5631 5629 5627 5626 5624 5623 5622 5620 5618 5615 5611 5609
5614 5617 5615 5618 5625 5631 5636 5638 5639 5641 5643 5642 5642 5642 5642 5641 5640 5639 5638 5637 5638 5638 5638 5637 5635 5634 5633 5632 5629 5628 5626 5624 5622 5621 5619 5618 5616 5615 5613 5612 5610 5609 5606 5604
5606 5607 5607 5612 5619 5619 5623 5629 5632 5633 5633 5634 5634 5634 5634 5633 5632 5631 5629 5629 5629 5629 5629 5628 5626 5625 5625 5624 5622 5621 5619 5617 5614 5612 5611 5610 5608 5606 5605 5604 5603 5602 5600 5599